Weather History for GMFM - November, 2012

Change the Weather History Date:

Tuesday, November 13, 2012

  Actual Average Record
Temperature  
Mean Temperature 55 °F -  
Max Temperature 63 °F - - ()
Min Temperature 47 °F - - ()
Degree Days  
Heating Degree Days 10    
Growing Degree Days 5 (Base 50)    
Moisture  
Dew Point 45 °F    
Average Humidity 71    
Maximum Humidity 94    
Minimum Humidity 45    
Precipitation  
Precipitation 0.00 in - - ()
Sea Level Pressure  
Sea Level Pressure 30.08 in    
Wind  
Wind Speed 3 mph ()    
Max Wind Speed 8 mph    
Max Gust Speed -    
Visibility 6.1 miles    
Events      
T = Trace of Precipitation, MM = Missing Value Source: Averaged Metar Reports

Daily Weather History Graph

Daily Weather History Graph

Search for Another Location

Airport or City:

Trip Planner

Search our weather history database for the weather conditions in past years. The results will help you decide how hot, cold, wet, or windy it might be!

Date:

Astronomy

Nov. 13, 2012 Rise Set
Actual Time 6:52 AM WET 5:19 PM WET
Civil Twilight 6:26 AM WET 5:46 PM WET
Nautical Twilight 5:56 AM WET 6:16 PM WET
Astronomical Twilight 5:26 AM WET 6:45 PM WET
Moon 6:13 AM WET (11/13) 5:01 PM WET (11/13)
Length of Visible Light 11h 19m
Length of Day
10h 27m
Waning Crescent, 0% of the Moon is Illuminated
Nov 13
Waning Crescent
Nov 13
New
Nov 20
First Quarter
Nov 28
Full
Dec 6
Last Quarter

Hourly Weather History & Observations

Time (WET) Temp. Dew Point Humidity Pressure Visibility Wind Dir Wind Speed Gust Speed Precip Events Conditions
12:00 AM 49 °F 44 °F 76% 30.15 in 6 mi South 5.8 mph - -   Scattered Clouds
12:00 AM 48.2 °F 44.6 °F 87% 30.12 in 6.2 mi South 5.8 mph - N/A   Scattered Clouds
1:00 AM 48.2 °F 42.8 °F 82% 30.12 in 6.2 mi South 3.5 mph - N/A   Scattered Clouds
2:00 AM 48.2 °F 42.8 °F 82% 30.12 in 6.2 mi SSE 3.5 mph - N/A   Scattered Clouds
3:00 AM 49 °F 43 °F 74% 30.13 in 6 mi Calm Calm - -   Scattered Clouds
3:00 AM 48.2 °F 42.8 °F 82% 30.12 in 6.2 mi Calm Calm - N/A   Scattered Clouds
4:00 AM 48.2 °F 42.8 °F 82% 30.09 in 6.2 mi South 3.5 mph - N/A   Scattered Clouds
5:00 AM 50.0 °F 44.6 °F 82% 30.09 in 6.2 mi SSW 3.5 mph - N/A   Scattered Clouds
6:00 AM 49 °F 44 °F 76% 30.12 in 6 mi South 4.6 mph - -   Clear
6:00 AM 48.2 °F 44.6 °F 87% 30.09 in - South 4.6 mph - N/A   Clear
7:00 AM 48.2 °F 42.8 °F 82% 30.09 in 6.2 mi South 3.5 mph - N/A   Scattered Clouds
8:00 AM 50.0 °F 42.8 °F 76% 30.12 in 6.2 mi South 2.3 mph - N/A   Scattered Clouds
9:00 AM 54 °F 45 °F 63% 30.12 in 6 mi WSW 3.5 mph - -   Partly Cloudy
9:00 AM 55.4 °F 44.6 °F 67% 30.12 in - WSW 3.5 mph - N/A   Clear
10:00 AM 57.2 °F 44.6 °F 63% 30.12 in 6.2 mi WSW 5.8 mph - N/A   Partly Cloudy
11:00 AM 59.0 °F 44.6 °F 59% 30.09 in 6.2 mi WSW 4.6 mph - N/A   Scattered Clouds
12:00 PM 60 °F 44 °F 45% 30.06 in 6 mi West 8.1 mph - -   Partly Cloudy
12:00 PM 60.8 °F 44.6 °F 55% 30.09 in 6.2 mi West 8.1 mph - N/A   Scattered Clouds
1:00 PM 60.8 °F 44.6 °F 55% 30.06 in 6.2 mi West 6.9 mph - N/A   Mostly Cloudy
2:00 PM 59.0 °F 44.6 °F 59% 30.06 in 6.2 mi West 3.5 mph - N/A   Mostly Cloudy
3:00 PM 59 °F 45 °F 50% 30.03 in 6 mi West 2.3 mph - -   Mostly Cloudy
3:00 PM 59.0 °F 44.6 °F 59% 30.06 in 6.2 mi West 2.3 mph - N/A   Mostly Cloudy
4:00 PM 59.0 °F 44.6 °F 59% 30.04 in 6.2 mi West 2.3 mph - N/A   Mostly Cloudy
5:00 PM 60.8 °F 46.4 °F 59% 30.04 in 6.2 mi SW 3.5 mph - N/A   Scattered Clouds
6:00 PM 58 °F 46 °F 54% 30.02 in 6 mi West 2.3 mph - -   Partly Cloudy
6:00 PM 57.2 °F 46.4 °F 67% 30.04 in 6.2 mi West 2.3 mph - N/A   Scattered Clouds
7:00 PM 55.4 °F 46.4 °F 72% 30.04 in 6.2 mi WNW 2.3 mph - N/A   Partly Cloudy
8:00 PM 53.6 °F 46.4 °F 77% 30.06 in 6.2 mi West 2.3 mph - N/A   Partly Cloudy
9:00 PM 52 °F 48 °F 82% 30.06 in 6 mi WNW 2.3 mph - -   Scattered Clouds
9:00 PM 51.8 °F 48.2 °F 88% 30.06 in 6.2 mi WNW 2.3 mph - N/A   Partly Cloudy
10:00 PM 48.2 °F 44.6 °F 87% 30.06 in 6.2 mi ESE 2.3 mph - N/A   Partly Cloudy
11:00 PM 50.0 °F 48.2 °F 94% 30.04 in 6.2 mi SSE 3.5 mph - N/A   Partly Cloudy